{"data":{"norad_id":55790,"epoch":"2026-05-25T01:01:27.259104Z","epoch_age_seconds":71316,"freshness":"FRESH","line1":"1 55790U 23028BB  26145.04267661  .00000845  00000+0  78640-4 0  9996","line2":"2 55790  69.9999  11.9239 0002871 269.5347  90.5483 14.98324878178467","mean_motion":14.98324878,"eccentricity":0.0002871,"inclination_deg":69.9999,"raan_deg":11.9239,"arg_perigee_deg":269.5347,"mean_anomaly_deg":90.5483,"bstar":7.864e-5,"rev_number":17846,"period_min":96.107327665956,"perigee_km":570.07632542554,"apogee_km":574.06713527851,"semimajor_km":6950.208730352,"source":"CELESTRAK","updated_at":"2026-05-25T13:38:17.888366Z"}}